Time,TemperatureF,DewpointF,PressureIn,WindDirection,WindDirectionDegrees,WindSpeedMPH,WindSpeedGustMPH,Humidity,HourlyPrecipIn,Conditions,Clouds,dailyrainin,SoftwareType,DateUTC
2013-07-15 05:51:00,70.0,69.4,30.31,NE,45,0.0,0.0,98,0.00,,,0.00,meteobridge,2013-07-15 09:51:00,
2013-07-15 06:02:00,70.2,69.6,30.32,NE,45,0.0,0.0,98,0.00,,,0.00,meteobridge,2013-07-15 10:02:00,
2013-07-15 06:07:00,70.3,69.8,30.32,East,90,0.0,0.0,98,0.00,,,0.00,meteobridge,2013-07-15 10:07:00,
2013-07-15 06:12:00,70.3,69.8,30.32,East,90,0.0,0.0,98,0.00,,,0.00,meteobridge,2013-07-15 10:12:00,
2013-07-15 06:17:00,70.3,69.8,30.32,East,90,0.0,0.0,98,0.00,,,0.00,meteobridge,2013-07-15 10:17:00,
2013-07-15 06:27:00,71.2,70.7,30.32,East,90,0.0,0.0,98,0.00,,,0.00,meteobridge,2013-07-15 10:27:00,
2013-07-15 06:33:00,72.1,71.2,30.32,South,180,0.0,0.0,97,0.00,,,0.00,meteobridge,2013-07-15 10:33:00,
2013-07-15 06:38:00,72.9,72.0,30.32,South,180,0.0,0.0,97,0.00,,,0.00,meteobridge,2013-07-15 10:38:00,
2013-07-15 06:43:00,74.3,73.8,30.32,South,180,0.0,0.0,98,0.00,,,0.00,meteobridge,2013-07-15 10:43:00,
2013-07-15 06:48:00,75.7,74.8,30.32,East,90,0.0,0.0,97,0.00,,,0.00,meteobridge,2013-07-15 10:48:00,
2013-07-15 06:53:00,76.5,75.6,30.32,SE,135,0.0,0.0,97,0.00,,,0.00,meteobridge,2013-07-15 10:53:00,
2013-07-15 06:58:00,77.4,75.7,30.32,South,180,0.0,0.0,95,0.00,,,0.00,meteobridge,2013-07-15 10:58:00,
2013-07-15 07:04:00,79.5,77.0,30.32,South,180,0.0,0.0,92,0.00,,,0.00,meteobridge,2013-07-15 11:04:00,
2013-07-15 07:09:00,80.6,75.7,30.32,South,180,0.7,2.2,85,0.00,,,0.00,meteobridge,2013-07-15 11:09:00,
2013-07-15 07:14:00,81.0,74.7,30.32,SE,135,0.7,3.8,81,0.00,,,0.00,meteobridge,2013-07-15 11:14:00,
2013-07-15 07:19:00,81.0,73.8,30.33,SW,225,4.5,4.5,79,0.00,,,0.00,meteobridge,2013-07-15 11:19:00,
2013-07-15 07:24:00,79.7,73.8,30.33,South,180,3.1,3.1,82,0.00,,,0.00,meteobridge,2013-07-15 11:24:00,
2013-07-15 07:29:00,79.7,73.8,30.33,SW,225,4.5,4.5,82,0.00,,,0.00,meteobridge,2013-07-15 11:29:00,
2013-07-15 07:35:00,79.9,73.9,30.33,SW,225,4.5,4.5,82,0.00,,,0.00,meteobridge,2013-07-15 11:35:00,
2013-07-15 07:40:00,80.8,74.5,30.33,SW,225,3.8,3.8,81,0.00,,,0.00,meteobridge,2013-07-15 11:40:00,
2013-07-15 07:45:00,81.1,74.3,30.33,West,270,3.8,4.5,80,0.00,,,0.00,meteobridge,2013-07-15 11:45:00,
2013-07-15 07:50:00,80.8,73.2,30.33,South,180,6.0,6.9,78,0.00,,,0.00,meteobridge,2013-07-15 11:50:00,
2013-07-15 07:55:00,80.2,73.0,30.33,NW,315,5.4,6.0,79,0.00,,,0.00,meteobridge,2013-07-15 11:55:00,
2013-07-15 08:00:00,79.2,73.2,30.33,SW,225,5.4,5.4,82,0.00,,,0.00,meteobridge,2013-07-15 12:00:00,
2013-07-15 08:06:00,79.0,73.0,30.33,SW,225,6.9,6.9,82,0.00,,,0.00,meteobridge,2013-07-15 12:06:00,
2013-07-15 08:11:00,78.8,73.2,30.34,West,270,3.1,5.4,83,0.00,,,0.00,meteobridge,2013-07-15 12:11:00,
2013-07-15 08:16:00,78.8,73.2,30.34,SW,225,5.4,6.0,83,0.00,,,0.00,meteobridge,2013-07-15 12:16:00,
2013-07-15 08:21:00,79.2,73.6,30.33,SW,225,4.5,4.5,83,0.00,,,0.00,meteobridge,2013-07-15 12:21:00,
2013-07-15 08:26:00,80.2,74.3,30.33,SW,225,6.0,6.0,82,0.00,,,0.00,meteobridge,2013-07-15 12:26:00,
2013-07-15 08:31:00,81.1,73.9,30.33,SW,225,5.4,5.4,79,0.00,,,0.00,meteobridge,2013-07-15 12:31:00,
2013-07-15 08:37:00,82.4,73.8,30.33,SSW,203,4.5,5.4,75,0.00,,,0.00,meteobridge,2013-07-15 12:37:00,
2013-07-15 08:42:00,82.8,73.9,30.34,South,180,3.8,5.4,75,0.00,,,0.00,meteobridge,2013-07-15 12:42:00,
2013-07-15 08:47:00,83.7,74.5,30.34,West,270,4.5,5.4,74,0.00,,,0.00,meteobridge,2013-07-15 12:47:00,
2013-07-15 08:52:00,84.0,74.8,30.34,SW,225,4.5,4.5,74,0.00,,,0.00,meteobridge,2013-07-15 12:52:00,
2013-07-15 08:57:00,84.0,73.6,30.34,West,270,4.5,6.0,71,0.00,,,0.00,meteobridge,2013-07-15 12:57:00,
2013-07-15 09:02:00,84.2,73.4,30.34,West,270,6.9,7.6,70,0.00,,,0.00,meteobridge,2013-07-15 13:02:00,
2013-07-15 09:08:00,82.9,73.0,30.34,SW,225,2.2,5.4,72,0.00,,,0.00,meteobridge,2013-07-15 13:08:00,
2013-07-15 09:13:00,84.2,73.4,30.34,West,270,6.9,6.9,70,0.00,,,0.00,meteobridge,2013-07-15 13:13:00,
2013-07-15 09:18:00,83.3,72.9,30.34,SSW,203,4.5,5.4,71,0.00,,,0.00,meteobridge,2013-07-15 13:18:00,
2013-07-15 09:23:00,84.2,73.8,30.34,SW,225,0.7,0.7,71,0.00,,,0.00,meteobridge,2013-07-15 13:23:00,
2013-07-15 09:28:00,86.0,73.8,30.34,West,270,4.5,4.5,67,0.00,,,0.00,meteobridge,2013-07-15 13:28:00,
2013-07-15 09:33:00,85.8,73.9,30.34,SW,225,3.1,3.8,68,0.00,,,0.00,meteobridge,2013-07-15 13:33:00,
2013-07-15 09:39:00,85.3,72.7,30.34,NW,315,3.1,6.0,66,0.00,,,0.00,meteobridge,2013-07-15 13:39:00,
2013-07-15 09:44:00,85.3,72.7,30.33,NW,315,3.1,7.6,66,0.00,,,0.00,meteobridge,2013-07-15 13:44:00,
2013-07-15 09:49:00,86.5,73.8,30.33,West,270,3.1,4.5,66,0.00,,,0.00,meteobridge,2013-07-15 13:49:00,
2013-07-15 09:54:00,86.5,73.4,30.33,SW,225,3.1,3.8,65,0.00,,,0.00,meteobridge,2013-07-15 13:54:00,
2013-07-15 09:59:00,86.0,73.2,30.33,South,180,6.0,7.6,66,0.00,,,0.00,meteobridge,2013-07-15 13:59:00,
2013-07-15 10:04:00,86.2,73.0,30.33,West,270,5.4,6.0,65,0.00,,,0.00,meteobridge,2013-07-15 14:04:00,
2013-07-15 10:10:00,86.0,72.9,30.33,SW,225,5.4,6.0,65,0.00,,,0.00,meteobridge,2013-07-15 14:10:00,
2013-07-15 10:15:00,86.2,73.0,30.33,NW,315,5.4,6.9,65,0.00,,,0.00,meteobridge,2013-07-15 14:15:00,
2013-07-15 10:20:00,86.2,72.5,30.33,NW,315,4.5,8.3,64,0.00,,,0.00,meteobridge,2013-07-15 14:20:00,
2013-07-15 10:25:00,86.4,72.3,30.33,West,270,6.9,8.3,63,0.00,,,0.00,meteobridge,2013-07-15 14:25:00,
2013-07-15 10:30:00,85.6,73.0,30.33,NW,315,7.6,7.6,66,0.00,,,0.00,meteobridge,2013-07-15 14:30:00,
2013-07-15 10:35:00,86.0,72.9,30.33,West,270,5.4,5.4,65,0.00,,,0.00,meteobridge,2013-07-15 14:35:00,
2013-07-15 10:41:00,87.8,73.2,30.33,NW,315,6.0,6.0,62,0.00,,,0.00,meteobridge,2013-07-15 14:41:00,
2013-07-15 10:46:00,87.6,73.4,30.33,SW,225,3.1,3.8,63,0.00,,,0.00,meteobridge,2013-07-15 14:46:00,
2013-07-15 10:51:00,88.2,73.9,30.33,SW,225,3.1,3.8,63,0.00,,,0.00,meteobridge,2013-07-15 14:51:00,
2013-07-15 10:56:00,88.0,73.4,30.33,WNW,293,2.2,4.5,62,0.00,,,0.00,meteobridge,2013-07-15 14:56:00,
2013-07-15 11:01:00,87.1,71.4,30.33,NW,315,3.1,7.6,60,0.00,,,0.00,meteobridge,2013-07-15 15:01:00,
2013-07-15 11:06:00,86.0,71.4,30.33,NW,315,6.0,6.0,62,0.00,,,0.00,meteobridge,2013-07-15 15:06:00,
2013-07-15 11:12:00,86.5,72.0,30.33,North,0,5.4,5.4,62,0.00,,,0.00,meteobridge,2013-07-15 15:12:00,
2013-07-15 11:17:00,87.4,70.9,30.33,NW,315,6.9,8.3,58,0.00,,,0.00,meteobridge,2013-07-15 15:17:00,
2013-07-15 11:22:00,87.3,71.6,30.33,West,270,11.4,11.4,60,0.00,,,0.00,meteobridge,2013-07-15 15:22:00,
2013-07-15 11:27:00,86.7,72.1,30.33,North,0,6.0,6.9,62,0.00,,,0.00,meteobridge,2013-07-15 15:27:00,
2013-07-15 11:32:00,85.3,72.7,30.34,North,0,8.3,8.3,66,0.00,,,0.00,meteobridge,2013-07-15 15:32:00,
2013-07-15 11:38:00,85.1,72.5,30.33,North,0,6.0,6.0,66,0.00,,,0.00,meteobridge,2013-07-15 15:38:00,
2013-07-15 11:43:00,85.5,72.9,30.33,North,0,9.2,9.2,66,0.00,,,0.00,meteobridge,2013-07-15 15:43:00,
2013-07-15 11:48:00,85.5,73.8,30.33,North,0,9.8,9.8,68,0.00,,,0.00,meteobridge,2013-07-15 15:48:00,
2013-07-15 11:53:00,86.5,73.4,30.33,NW,315,6.0,9.8,65,0.00,,,0.00,meteobridge,2013-07-15 15:53:00,
2013-07-15 11:58:00,86.9,73.2,30.33,North,0,4.5,7.6,64,0.00,,,0.00,meteobridge,2013-07-15 15:58:00,
2013-07-15 12:03:00,86.9,73.8,30.33,West,270,9.8,9.8,65,0.00,,,0.00,meteobridge,2013-07-15 16:03:00,
2013-07-15 12:09:00,86.5,72.9,30.33,North,0,13.0,13.0,64,0.00,,,0.00,meteobridge,2013-07-15 16:09:00,
2013-07-15 12:14:00,85.6,71.6,30.33,North,0,5.4,9.8,63,0.00,,,0.00,meteobridge,2013-07-15 16:14:00,
2013-07-15 12:19:00,86.4,72.7,30.33,North,0,9.8,9.8,64,0.00,,,0.00,meteobridge,2013-07-15 16:19:00,
2013-07-15 12:24:00,86.0,72.0,30.33,North,0,5.4,6.0,63,0.00,,,0.00,meteobridge,2013-07-15 16:24:00,
2013-07-15 12:29:00,86.7,72.7,30.33,West,270,6.0,8.3,63,0.00,,,0.00,meteobridge,2013-07-15 16:29:00,
2013-07-15 12:34:00,86.2,72.1,30.33,West,270,6.0,9.8,63,0.00,,,0.00,meteobridge,2013-07-15 16:34:00,
2013-07-15 12:40:00,86.4,71.8,30.33,West,270,6.0,7.6,62,0.00,,,0.00,meteobridge,2013-07-15 16:40:00,
2013-07-15 12:45:00,86.9,71.8,30.33,NW,315,5.4,5.4,61,0.00,,,0.00,meteobridge,2013-07-15 16:45:00,
2013-07-15 12:50:00,87.1,71.4,30.33,North,0,4.5,8.3,60,0.00,,,0.00,meteobridge,2013-07-15 16:50:00,
2013-07-15 12:55:00,86.7,71.2,30.32,NE,45,6.0,6.0,60,0.00,,,0.00,meteobridge,2013-07-15 16:55:00,
2013-07-15 13:00:00,86.9,71.8,30.33,West,270,7.6,7.6,61,0.00,,,0.00,meteobridge,2013-07-15 17:00:00,
2013-07-15 13:05:00,87.1,71.1,30.32,West,270,8.3,8.3,59,0.00,,,0.00,meteobridge,2013-07-15 17:05:00,
2013-07-15 13:11:00,87.6,71.1,30.32,North,0,4.5,4.5,58,0.00,,,0.00,meteobridge,2013-07-15 17:11:00,
2013-07-15 13:16:00,87.6,71.6,30.32,North,0,5.4,6.9,59,0.00,,,0.00,meteobridge,2013-07-15 17:16:00,
2013-07-15 13:21:00,88.2,70.5,30.32,NW,315,8.3,8.3,56,0.00,,,0.00,meteobridge,2013-07-15 17:21:00,
2013-07-15 13:26:00,88.2,70.0,30.32,West,270,7.6,7.6,55,0.00,,,0.00,meteobridge,2013-07-15 17:26:00,
2013-07-15 13:31:00,88.9,72.1,30.32,NW,315,6.9,6.9,58,0.00,,,0.00,meteobridge,2013-07-15 17:31:00,
2013-07-15 13:36:00,89.1,71.2,30.32,West,270,9.2,9.2,56,0.00,,,0.00,meteobridge,2013-07-15 17:36:00,
2013-07-15 13:42:00,88.3,69.6,30.32,SW,225,2.2,8.3,54,0.00,,,0.00,meteobridge,2013-07-15 17:42:00,
2013-07-15 13:47:00,88.7,71.1,30.31,NW,315,9.2,10.7,56,0.00,,,0.00,meteobridge,2013-07-15 17:47:00,
2013-07-15 13:52:00,88.5,69.8,30.31,SW,225,5.4,7.6,54,0.00,,,0.00,meteobridge,2013-07-15 17:52:00,
2013-07-15 13:57:00,88.9,70.2,30.32,NW,315,9.2,9.2,54,0.00,,,0.00,meteobridge,2013-07-15 17:57:00,
2013-07-15 14:02:00,88.9,70.2,30.31,SE,135,2.2,4.5,54,0.00,,,0.00,meteobridge,2013-07-15 18:02:00,
2013-07-15 14:07:00,89.8,70.3,30.31,NW,315,4.5,6.9,53,0.00,,,0.00,meteobridge,2013-07-15 18:07:00,
2013-07-15 14:13:00,89.6,69.6,30.31,West,270,6.0,7.6,52,0.00,,,0.00,meteobridge,2013-07-15 18:13:00,
2013-07-15 14:18:00,89.6,69.1,30.31,NW,315,8.3,10.7,51,0.00,,,0.00,meteobridge,2013-07-15 18:18:00,
2013-07-15 14:23:00,89.1,69.6,30.31,North,0,6.9,6.9,53,0.00,,,0.00,meteobridge,2013-07-15 18:23:00,
2013-07-15 14:28:00,90.0,69.4,30.31,West,270,5.4,5.4,51,0.00,,,0.00,meteobridge,2013-07-15 18:28:00,
2013-07-15 14:33:00,90.0,70.0,30.31,NW,315,7.6,7.6,52,0.00,,,0.00,meteobridge,2013-07-15 18:33:00,
2013-07-15 14:38:00,90.0,69.4,30.31,North,0,12.1,12.1,51,0.00,,,0.00,meteobridge,2013-07-15 18:38:00,
2013-07-15 14:44:00,88.9,69.6,30.31,NW,315,9.8,9.8,53,0.00,,,0.00,meteobridge,2013-07-15 18:44:00,
2013-07-15 14:49:00,89.2,69.8,30.31,West,270,7.6,8.3,53,0.00,,,0.00,meteobridge,2013-07-15 18:49:00,
2013-07-15 14:54:00,89.6,68.5,30.31,West,270,1.6,8.3,50,0.00,,,0.00,meteobridge,2013-07-15 18:54:00,
2013-07-15 14:59:00,89.6,69.1,30.31,NW,315,10.7,10.7,51,0.00,,,0.00,meteobridge,2013-07-15 18:59:00,
2013-07-15 15:04:00,89.2,69.8,30.31,West,270,9.2,9.2,53,0.00,,,0.00,meteobridge,2013-07-15 19:04:00,
2013-07-15 15:09:00,91.0,71.6,30.31,NNW,338,6.9,6.9,53,0.00,,,0.00,meteobridge,2013-07-15 19:09:00,
2013-07-15 15:15:00,90.9,70.2,30.31,NW,315,6.9,6.9,51,0.00,,,0.00,meteobridge,2013-07-15 19:15:00,
2013-07-15 15:20:00,90.9,70.2,30.30,North,0,5.4,6.0,51,0.00,,,0.00,meteobridge,2013-07-15 19:20:00,
2013-07-15 15:25:00,90.3,69.1,30.30,NW,315,8.3,9.2,50,0.00,,,0.00,meteobridge,2013-07-15 19:25:00,
2013-07-15 15:30:00,88.9,69.6,30.30,North,0,2.2,7.6,53,0.00,,,0.00,meteobridge,2013-07-15 19:30:00,
2013-07-15 15:35:00,90.1,70.2,30.30,NNW,338,5.4,7.6,52,0.00,,,0.00,meteobridge,2013-07-15 19:35:00,
2013-07-15 15:40:00,90.3,70.3,30.30,West,270,5.4,5.4,52,0.00,,,0.00,meteobridge,2013-07-15 19:40:00,
2013-07-15 15:46:00,90.1,69.6,30.30,NW,315,6.9,9.8,51,0.00,,,0.00,meteobridge,2013-07-15 19:46:00,
2013-07-15 15:51:00,90.3,68.5,30.30,NW,315,9.8,9.8,49,0.00,,,0.00,meteobridge,2013-07-15 19:51:00,
2013-07-15 15:56:00,90.1,67.8,30.30,West,270,9.8,10.7,48,0.00,,,0.00,meteobridge,2013-07-15 19:56:00,
2013-07-15 16:01:00,90.3,68.0,30.30,NW,315,6.9,8.3,48,0.00,,,0.00,meteobridge,2013-07-15 20:01:00,
2013-07-15 16:06:00,90.3,66.7,30.30,WNW,293,7.6,9.8,46,0.00,,,0.00,meteobridge,2013-07-15 20:06:00,
2013-07-15 16:11:00,91.0,68.0,30.30,NW,315,9.8,10.7,47,0.00,,,0.00,meteobridge,2013-07-15 20:11:00,
2013-07-15 16:17:00,90.7,68.4,30.30,NW,315,6.9,7.6,48,0.00,,,0.00,meteobridge,2013-07-15 20:17:00,
2013-07-15 16:22:00,90.3,68.0,30.30,North,0,10.7,10.7,48,0.00,,,0.00,meteobridge,2013-07-15 20:22:00,
2013-07-15 16:27:00,90.3,67.3,30.30,West,270,9.2,9.2,47,0.00,,,0.00,meteobridge,2013-07-15 20:27:00,
2013-07-15 16:32:00,90.3,68.0,30.30,NW,315,10.7,10.7,48,0.00,,,0.00,meteobridge,2013-07-15 20:32:00,
2013-07-15 16:37:00,90.7,69.4,30.30,NNW,338,3.8,5.4,50,0.00,,,0.00,meteobridge,2013-07-15 20:37:00,
2013-07-15 16:43:00,91.0,70.9,30.30,NW,315,6.0,6.0,52,0.00,,,0.00,meteobridge,2013-07-15 20:43:00,
2013-07-15 16:48:00,90.1,69.6,30.30,North,0,7.6,7.6,51,0.00,,,0.00,meteobridge,2013-07-15 20:48:00,
2013-07-15 16:53:00,89.8,68.7,30.30,North,0,9.2,10.7,50,0.00,,,0.00,meteobridge,2013-07-15 20:53:00,
2013-07-15 16:58:00,90.0,69.4,30.30,NW,315,6.0,8.3,51,0.00,,,0.00,meteobridge,2013-07-15 20:58:00,
2013-07-15 17:03:00,90.1,67.8,30.30,NW,315,8.3,10.7,48,0.00,,,0.00,meteobridge,2013-07-15 21:03:00,
2013-07-15 17:08:00,89.6,67.8,30.30,NW,315,9.2,9.8,49,0.00,,,0.00,meteobridge,2013-07-15 21:08:00,
2013-07-15 17:14:00,89.8,66.2,30.30,NW,315,6.0,7.6,46,0.00,,,0.00,meteobridge,2013-07-15 21:14:00,
2013-07-15 17:19:00,89.8,66.2,30.30,NW,315,6.9,13.0,46,0.00,,,0.00,meteobridge,2013-07-15 21:19:00,
2013-07-15 17:24:00,89.4,65.8,30.30,NW,315,9.2,9.8,46,0.00,,,0.00,meteobridge,2013-07-15 21:24:00,
2013-07-15 17:29:00,89.1,65.7,30.30,NW,315,7.6,8.3,46,0.00,,,0.00,meteobridge,2013-07-15 21:29:00,
2013-07-15 17:34:00,89.2,65.1,30.30,NW,315,6.0,7.6,45,0.00,,,0.00,meteobridge,2013-07-15 21:34:00,
2013-07-15 17:39:00,89.8,63.7,30.30,West,270,5.4,6.9,42,0.00,,,0.00,meteobridge,2013-07-15 21:39:00,
2013-07-15 17:45:00,89.6,63.5,30.29,North,0,8.3,8.3,42,0.00,,,0.00,meteobridge,2013-07-15 21:45:00,
2013-07-15 17:50:00,89.4,64.0,30.29,NW,315,8.3,8.3,43,0.00,,,0.00,meteobridge,2013-07-15 21:50:00,
2013-07-15 18:00:00,89.8,63.0,30.29,NNW,338,6.9,6.9,41,0.00,,,0.00,meteobridge,2013-07-15 22:00:00,
2013-07-15 18:05:00,89.8,59.2,30.29,NW,315,8.3,8.3,36,0.00,,,0.00,meteobridge,2013-07-15 22:05:00,
2013-07-15 18:10:00,90.0,58.6,30.29,NNW,338,6.0,9.2,35,0.00,,,0.00,meteobridge,2013-07-15 22:10:00,
2013-07-15 18:16:00,89.8,58.5,30.29,NW,315,8.3,8.3,35,0.00,,,0.00,meteobridge,2013-07-15 22:16:00,
2013-07-15 18:21:00,90.3,60.4,30.29,West,270,5.4,5.4,37,0.00,,,0.00,meteobridge,2013-07-15 22:21:00,
2013-07-15 18:26:00,90.7,60.8,30.29,NW,315,4.5,6.0,37,0.00,,,0.00,meteobridge,2013-07-15 22:26:00,
2013-07-15 18:31:00,90.3,59.0,30.29,North,0,5.4,6.9,35,0.00,,,0.00,meteobridge,2013-07-15 22:31:00,
2013-07-15 18:41:00,90.3,59.0,30.29,NE,45,6.9,6.9,35,0.00,,,0.00,meteobridge,2013-07-15 22:41:00,
2013-07-15 18:47:00,90.3,57.4,30.29,NW,315,4.5,6.0,33,0.00,,,0.00,meteobridge,2013-07-15 22:47:00,
2013-07-15 18:52:00,90.3,57.4,30.29,North,0,3.8,4.5,33,0.00,,,0.00,meteobridge,2013-07-15 22:52:00,
2013-07-15 18:57:00,90.7,58.5,30.29,North,0,3.1,5.4,34,0.00,,,0.00,meteobridge,2013-07-15 22:57:00,
2013-07-15 19:02:00,91.4,60.6,30.29,NNW,338,3.1,3.1,36,0.00,,,0.00,meteobridge,2013-07-15 23:02:00,
2013-07-15 19:07:00,92.5,62.4,30.29,North,0,1.6,2.2,37,0.00,,,0.00,meteobridge,2013-07-15 23:07:00,
2013-07-15 19:12:00,93.0,61.3,30.29,North,0,2.2,3.1,35,0.00,,,0.00,meteobridge,2013-07-15 23:12:00,
2013-07-15 19:18:00,93.4,61.7,30.28,North,0,2.2,3.1,35,0.00,,,0.00,meteobridge,2013-07-15 23:18:00,
2013-07-15 19:23:00,92.8,61.9,30.28,North,0,2.2,2.2,36,0.00,,,0.00,meteobridge,2013-07-15 23:23:00,
2013-07-15 19:36:00,93.2,63.1,30.28,North,0,2.2,2.2,37,0.00,,,0.00,meteobridge,2013-07-15 23:36:00,
2013-07-15 19:41:00,93.6,62.6,30.28,North,0,1.6,2.2,36,0.00,,,0.00,meteobridge,2013-07-15 23:41:00,
2013-07-15 19:46:00,93.9,63.0,30.28,North,0,0.7,1.6,36,0.00,,,0.00,meteobridge,2013-07-15 23:46:00,
2013-07-15 19:52:00,93.9,65.8,30.28,North,0,1.6,1.6,40,0.00,,,0.00,meteobridge,2013-07-15 23:52:00,
2013-07-15 19:57:00,92.1,62.8,30.28,North,0,1.6,1.6,38,0.00,,,0.00,meteobridge,2013-07-15 23:57:00,
2013-07-15 20:02:00,91.0,62.6,30.28,North,0,0.7,0.7,39,0.00,,,0.00,meteobridge,2013-07-16 00:02:00,
2013-07-15 20:07:00,90.9,65.3,30.28,NE,45,0.0,0.7,43,0.00,,,0.00,meteobridge,2013-07-16 00:07:00,
2013-07-15 20:12:00,91.0,66.7,30.28,NE,45,0.0,0.0,45,0.00,,,0.00,meteobridge,2013-07-16 00:12:00,
2013-07-15 20:17:00,91.0,66.7,30.28,NE,45,0.0,0.0,45,0.00,,,0.00,meteobridge,2013-07-16 00:17:00,
2013-07-15 20:23:00,90.3,66.0,30.28,NE,45,0.0,0.0,45,0.00,,,0.00,meteobridge,2013-07-16 00:23:00,
2013-07-15 20:28:00,88.2,66.6,30.28,NE,45,0.0,0.0,49,0.00,,,0.00,meteobridge,2013-07-16 00:28:00,
2013-07-15 20:33:00,86.2,67.1,30.28,NE,45,0.0,0.0,53,0.00,,,0.00,meteobridge,2013-07-16 00:33:00,
2013-07-15 20:38:00,84.2,66.2,30.28,NE,45,0.0,0.0,55,0.00,,,0.00,meteobridge,2013-07-16 00:38:00,
2013-07-15 20:43:00,82.2,66.0,30.28,NE,45,0.0,0.0,58,0.00,,,0.00,meteobridge,2013-07-16 00:43:00,
2013-07-15 20:48:00,80.2,66.9,30.28,SE,135,0.0,0.0,64,0.00,,,0.00,meteobridge,2013-07-16 00:48:00,
2013-07-15 20:59:00,78.6,66.4,30.28,SE,135,0.0,0.0,66,0.00,,,0.00,meteobridge,2013-07-16 00:59:00,
2013-07-15 21:04:00,76.8,65.8,30.28,SE,135,0.0,0.0,69,0.00,,,0.00,meteobridge,2013-07-16 01:04:00,
2013-07-15 21:09:00,76.1,65.7,30.28,SE,135,0.0,0.0,70,0.00,,,0.00,meteobridge,2013-07-16 01:09:00,
2013-07-15 21:14:00,75.4,66.6,30.28,SE,135,0.0,0.0,74,0.00,,,0.00,meteobridge,2013-07-16 01:14:00,
2013-07-15 21:24:00,74.7,66.2,30.28,SE,135,0.0,0.0,75,0.00,,,0.00,meteobridge,2013-07-16 01:24:00,
2013-07-15 21:30:00,73.6,65.5,30.29,SE,135,0.0,0.0,76,0.00,,,0.00,meteobridge,2013-07-16 01:30:00,
2013-07-15 21:35:00,73.2,65.7,30.29,SE,135,0.0,0.0,77,0.00,,,0.00,meteobridge,2013-07-16 01:35:00,
2013-07-15 21:40:00,73.2,66.7,30.29,SE,135,0.0,0.0,80,0.00,,,0.00,meteobridge,2013-07-16 01:40:00,
2013-07-15 21:45:00,72.9,66.7,30.29,SE,135,0.0,0.0,81,0.00,,,0.00,meteobridge,2013-07-16 01:45:00,
2013-07-15 21:50:00,72.5,66.7,30.29,East,90,1.6,1.6,82,0.00,,,0.00,meteobridge,2013-07-16 01:50:00,
2013-07-15 21:56:00,72.1,66.4,30.29,East,90,1.6,1.6,82,0.00,,,0.00,meteobridge,2013-07-16 01:56:00,
2013-07-15 22:01:00,72.1,66.0,30.29,SE,135,0.7,0.7,81,0.00,,,0.00,meteobridge,2013-07-16 02:01:00,
2013-07-15 22:06:00,72.0,65.8,30.29,SE,135,0.0,0.7,81,0.00,,,0.00,meteobridge,2013-07-16 02:06:00,
2013-07-15 22:11:00,71.8,66.0,30.30,SE,135,0.0,0.0,82,0.00,,,0.00,meteobridge,2013-07-16 02:11:00,
2013-07-15 22:16:00,71.4,65.7,30.30,SE,135,0.0,0.0,82,0.00,,,0.00,meteobridge,2013-07-16 02:16:00,
2013-07-15 22:21:00,71.1,66.4,30.29,NE,45,0.0,0.7,85,0.00,,,0.00,meteobridge,2013-07-16 02:21:00,
2013-07-15 22:27:00,71.1,66.7,30.29,NE,45,0.0,0.0,86,0.00,,,0.00,meteobridge,2013-07-16 02:27:00,
2013-07-15 22:32:00,70.7,66.4,30.29,NE,45,0.0,0.0,86,0.00,,,0.00,meteobridge,2013-07-16 02:32:00,
2013-07-15 22:37:00,70.5,66.2,30.29,NE,45,0.0,0.0,86,0.00,,,0.00,meteobridge,2013-07-16 02:37:00,
2013-07-15 22:42:00,70.5,65.8,30.29,South,180,0.0,0.0,85,0.00,,,0.00,meteobridge,2013-07-16 02:42:00,
2013-07-15 22:52:00,70.5,65.5,30.29,South,180,0.0,0.0,84,0.00,,,0.00,meteobridge,2013-07-16 02:52:00,
2013-07-15 22:58:00,70.3,65.3,30.29,South,180,0.0,0.0,84,0.00,,,0.00,meteobridge,2013-07-16 02:58:00,
2013-07-15 23:03:00,70.5,66.2,30.29,West,270,2.2,2.2,86,0.00,,,0.00,meteobridge,2013-07-16 03:03:00,
2013-07-15 23:08:00,70.7,66.9,30.29,West,270,1.6,1.6,88,0.00,,,0.00,meteobridge,2013-07-16 03:08:00,
2013-07-15 23:13:00,70.7,66.4,30.29,West,270,1.6,1.6,86,0.00,,,0.00,meteobridge,2013-07-16 03:13:00,
2013-07-15 23:18:00,70.9,66.2,30.29,West,270,0.0,0.7,85,0.00,,,0.00,meteobridge,2013-07-16 03:18:00,
2013-07-15 23:28:00,70.7,66.4,30.29,West,270,0.0,0.0,86,0.00,,,0.00,meteobridge,2013-07-16 03:28:00,
2013-07-15 23:34:00,70.0,65.7,30.29,West,270,0.0,0.0,86,0.00,,,0.00,meteobridge,2013-07-16 03:34:00,
2013-07-15 23:39:00,69.8,65.8,30.29,West,270,0.0,0.0,87,0.00,,,0.00,meteobridge,2013-07-16 03:39:00,
2013-07-15 23:44:00,69.6,66.2,30.29,West,270,0.0,0.0,89,0.00,,,0.00,meteobridge,2013-07-16 03:44:00,
2013-07-15 23:49:00,69.3,66.2,30.29,East,90,0.0,0.0,90,0.00,,,0.00,meteobridge,2013-07-16 03:49:00,
2013-07-15 23:54:00,69.1,66.4,30.29,SE,135,1.6,1.6,91,0.00,,,0.00,meteobridge,2013-07-16 03:54:00,